Year,Month,Day,Hour,Minute,Value (Times are PST for temperature in C)
2015,06,29,00,00,22.80
2015,06,29,00,01,22.80
2015,06,29,00,02,22.80
2015,06,29,00,03,22.80
2015,06,29,00,04,22.80
2015,06,29,00,05,22.80
2015,06,29,00,06,22.80
2015,06,29,00,07,22.80
2015,06,29,00,08,22.70
2015,06,29,00,09,22.70
2015,06,29,00,10,22.70
2015,06,29,00,11,22.70
2015,06,29,00,12,22.60
2015,06,29,00,13,22.60
2015,06,29,00,14,22.60
2015,06,29,00,15,22.60
2015,06,29,00,16,22.50
2015,06,29,00,17,22.50
2015,06,29,00,18,22.50
2015,06,29,00,19,22.40
2015,06,29,00,20,22.40
2015,06,29,00,21,22.30
2015,06,29,00,22,22.30
2015,06,29,00,23,22.30
2015,06,29,00,24,22.30
2015,06,29,00,25,22.20
2015,06,29,00,26,22.20
2015,06,29,00,27,22.20
2015,06,29,00,28,22.20
2015,06,29,00,29,22.20
2015,06,29,00,30,22.10
2015,06,29,00,31,22.10
2015,06,29,00,32,22.10
2015,06,29,00,33,22.10
2015,06,29,00,34,22.10
2015,06,29,00,35,22.00
2015,06,29,00,36,22.00
2015,06,29,00,37,21.90
2015,06,29,00,38,21.90
2015,06,29,00,39,21.90
2015,06,29,00,40,21.80
2015,06,29,00,41,21.80
2015,06,29,00,42,21.80
2015,06,29,00,43,21.70
2015,06,29,00,44,21.70
2015,06,29,00,45,21.70
2015,06,29,00,46,21.60
2015,06,29,00,47,21.60
2015,06,29,00,48,21.60
2015,06,29,00,49,21.60
2015,06,29,00,50,21.50
2015,06,29,00,51,21.50
2015,06,29,00,52,21.50
2015,06,29,00,53,21.40
2015,06,29,00,54,21.40
2015,06,29,00,55,21.40
2015,06,29,00,56,21.40
2015,06,29,00,57,21.30
2015,06,29,00,58,21.30
2015,06,29,00,59,21.30
2015,06,29,01,00,21.30
2015,06,29,01,01,21.30
2015,06,29,01,02,21.20
2015,06,29,01,03,21.20
2015,06,29,01,04,21.20
2015,06,29,01,05,21.20
2015,06,29,01,06,21.20
2015,06,29,01,07,21.10
2015,06,29,01,08,21.10
2015,06,29,01,09,21.10
2015,06,29,01,10,21.00
2015,06,29,01,11,21.00
2015,06,29,01,12,21.00
2015,06,29,01,13,20.90
2015,06,29,01,14,20.90
2015,06,29,01,15,20.90
2015,06,29,01,16,20.90
2015,06,29,01,17,20.80
2015,06,29,01,18,20.80
2015,06,29,01,19,20.80
2015,06,29,01,20,20.70
2015,06,29,01,21,20.70
2015,06,29,01,22,20.70
2015,06,29,01,23,20.70
2015,06,29,01,24,20.60
2015,06,29,01,25,20.60
2015,06,29,01,26,20.60
2015,06,29,01,27,20.60
2015,06,29,01,28,20.60
2015,06,29,01,29,20.60
2015,06,29,01,30,20.60
2015,06,29,01,31,20.60
2015,06,29,01,32,20.60
2015,06,29,01,33,20.50
2015,06,29,01,34,20.50
2015,06,29,01,35,20.40
2015,06,29,01,36,20.40
2015,06,29,01,37,20.30
2015,06,29,01,38,20.30
2015,06,29,01,39,20.20
2015,06,29,01,40,20.20
2015,06,29,01,41,20.20
2015,06,29,01,42,20.20
2015,06,29,01,43,20.20
2015,06,29,01,44,20.10
2015,06,29,01,45,20.10
2015,06,29,01,46,20.10
2015,06,29,01,47,20.10
2015,06,29,01,48,20.10
2015,06,29,01,49,20.10
2015,06,29,01,50,20.10
2015,06,29,01,51,20.10
2015,06,29,01,52,20.10
2015,06,29,01,53,20.10
2015,06,29,01,54,20.10
2015,06,29,01,55,20.10
2015,06,29,01,56,20.10
2015,06,29,01,57,20.10
2015,06,29,01,58,20.00
2015,06,29,01,59,20.00
2015,06,29,02,00,20.00
2015,06,29,02,01,20.00
2015,06,29,02,02,19.90
2015,06,29,02,03,19.90
2015,06,29,02,04,19.90
2015,06,29,02,05,19.90
2015,06,29,02,06,19.90
2015,06,29,02,07,19.90
2015,06,29,02,08,19.90
2015,06,29,02,09,19.90
2015,06,29,02,10,19.90
2015,06,29,02,11,19.90
2015,06,29,02,12,19.80
2015,06,29,02,13,19.90
2015,06,29,02,14,19.80
2015,06,29,02,15,19.80
2015,06,29,02,16,19.80
2015,06,29,02,17,19.80
2015,06,29,02,18,19.80
2015,06,29,02,19,19.80
2015,06,29,02,20,19.80
2015,06,29,02,21,19.80
2015,06,29,02,22,19.80
2015,06,29,02,23,19.70
2015,06,29,02,24,19.70
2015,06,29,02,25,19.70
2015,06,29,02,26,19.70
2015,06,29,02,27,19.70
2015,06,29,02,28,19.70
2015,06,29,02,29,19.70
2015,06,29,02,30,19.70
2015,06,29,02,31,19.70
2015,06,29,02,32,19.70
2015,06,29,02,33,19.70
2015,06,29,02,34,19.70
2015,06,29,02,35,19.70
2015,06,29,02,36,19.70
2015,06,29,02,37,19.60
2015,06,29,02,38,19.60
2015,06,29,02,39,19.60
2015,06,29,02,40,19.60
2015,06,29,02,41,19.60
2015,06,29,02,42,19.60
2015,06,29,02,43,19.60
2015,06,29,02,44,19.70
2015,06,29,02,45,19.70
2015,06,29,02,46,19.70
2015,06,29,02,47,19.80
2015,06,29,02,48,19.80
2015,06,29,02,49,19.80
2015,06,29,02,50,19.80
2015,06,29,02,51,19.80
2015,06,29,02,52,19.80
2015,06,29,02,53,19.90
2015,06,29,02,54,19.90
2015,06,29,02,55,19.90
2015,06,29,02,56,19.80
2015,06,29,02,57,19.80
2015,06,29,02,58,19.80
2015,06,29,02,59,19.80
2015,06,29,03,00,19.80
2015,06,29,03,01,19.80
2015,06,29,03,02,19.80
2015,06,29,03,03,19.80
2015,06,29,03,04,19.80
2015,06,29,03,05,19.80
2015,06,29,03,06,19.80
2015,06,29,03,07,19.80
2015,06,29,03,08,19.80
2015,06,29,03,09,19.80
2015,06,29,03,10,19.80
2015,06,29,03,11,19.80
2015,06,29,03,12,19.80
2015,06,29,03,13,19.70
2015,06,29,03,14,19.70
2015,06,29,03,15,19.70
2015,06,29,03,16,19.70
2015,06,29,03,17,19.70
2015,06,29,03,18,19.70
2015,06,29,03,19,19.70
2015,06,29,03,20,19.70
2015,06,29,03,21,19.70
2015,06,29,03,22,19.70
2015,06,29,03,23,19.70
2015,06,29,03,24,19.60
2015,06,29,03,25,19.60
2015,06,29,03,26,19.60
2015,06,29,03,27,19.60
2015,06,29,03,28,19.60
2015,06,29,03,29,19.60
2015,06,29,03,30,19.60
2015,06,29,03,31,19.50
2015,06,29,03,32,19.50
2015,06,29,03,33,19.50
2015,06,29,03,34,19.50
2015,06,29,03,35,19.40
2015,06,29,03,36,19.40
2015,06,29,03,37,19.40
2015,06,29,03,38,19.40
2015,06,29,03,39,19.40
2015,06,29,03,40,19.40
2015,06,29,03,41,19.30
2015,06,29,03,42,19.30
2015,06,29,03,43,19.30
2015,06,29,03,44,19.30
2015,06,29,03,45,19.30
2015,06,29,03,46,19.30
2015,06,29,03,47,19.30
2015,06,29,03,48,19.30
2015,06,29,03,49,19.30
2015,06,29,03,50,19.30
2015,06,29,03,51,19.30
2015,06,29,03,52,19.30
2015,06,29,03,53,19.20
2015,06,29,03,54,19.20
2015,06,29,03,55,19.20
2015,06,29,03,56,19.20
2015,06,29,03,57,19.20
2015,06,29,03,58,19.20
2015,06,29,03,59,19.20
2015,06,29,04,00,19.20
2015,06,29,04,01,19.10
2015,06,29,04,02,19.10
2015,06,29,04,03,19.10
2015,06,29,04,04,19.10
2015,06,29,04,05,19.10
2015,06,29,04,06,19.10
2015,06,29,04,07,19.00
2015,06,29,04,08,19.00
2015,06,29,04,09,19.00
2015,06,29,04,10,19.00
2015,06,29,04,11,19.00
2015,06,29,04,12,19.00
2015,06,29,04,13,19.00
2015,06,29,04,14,19.00
2015,06,29,04,15,19.00
2015,06,29,04,16,19.00
2015,06,29,04,17,19.00
2015,06,29,04,18,19.00
2015,06,29,04,19,19.00
2015,06,29,04,20,19.00
2015,06,29,04,21,19.00
2015,06,29,04,22,18.90
2015,06,29,04,23,18.90
2015,06,29,04,24,18.90
2015,06,29,04,25,18.90
2015,06,29,04,26,18.90
2015,06,29,04,27,18.90
2015,06,29,04,28,18.90
2015,06,29,04,29,18.90
2015,06,29,04,30,18.90
2015,06,29,04,31,18.80
2015,06,29,04,32,18.80
2015,06,29,04,33,18.80
2015,06,29,04,34,18.80
2015,06,29,04,35,18.80
2015,06,29,04,36,18.80
2015,06,29,04,37,18.80
2015,06,29,04,38,18.80
2015,06,29,04,39,18.80
2015,06,29,04,40,18.80
2015,06,29,04,41,18.80
2015,06,29,04,42,18.80
2015,06,29,04,43,18.80
2015,06,29,04,44,18.80
2015,06,29,04,45,18.80
2015,06,29,04,46,18.80
2015,06,29,04,47,18.80
2015,06,29,04,48,18.80
2015,06,29,04,49,18.80
2015,06,29,04,50,18.80
2015,06,29,04,51,18.80
2015,06,29,04,52,18.70
2015,06,29,04,53,18.70
2015,06,29,04,54,18.80
2015,06,29,04,55,18.70
2015,06,29,04,56,18.70
2015,06,29,04,57,18.70
2015,06,29,04,58,18.80
2015,06,29,04,59,18.80
2015,06,29,05,00,18.80
2015,06,29,05,01,18.80
2015,06,29,05,02,18.80
2015,06,29,05,03,18.80
2015,06,29,05,04,18.80
2015,06,29,05,05,18.80
2015,06,29,05,06,18.80
2015,06,29,05,07,18.80
2015,06,29,05,08,18.80
2015,06,29,05,09,18.80
2015,06,29,05,10,18.70
2015,06,29,05,11,18.70
2015,06,29,05,12,18.70
2015,06,29,05,13,18.70
2015,06,29,05,14,18.70
2015,06,29,05,15,18.70
2015,06,29,05,16,18.60
2015,06,29,05,17,18.60
2015,06,29,05,18,18.60
2015,06,29,05,19,18.50
2015,06,29,05,20,18.50
2015,06,29,05,21,18.50
2015,06,29,05,22,18.50
2015,06,29,05,23,18.50
2015,06,29,05,24,18.50
2015,06,29,05,25,18.50
2015,06,29,05,26,18.50
2015,06,29,05,27,18.50
2015,06,29,05,28,18.50
2015,06,29,05,29,18.50
2015,06,29,05,30,18.50
2015,06,29,05,31,18.50
2015,06,29,05,32,18.50
2015,06,29,05,33,18.50
2015,06,29,05,34,18.50
2015,06,29,05,35,18.50
2015,06,29,05,36,18.50
2015,06,29,05,37,18.50
2015,06,29,05,38,18.50
2015,06,29,05,39,18.50
2015,06,29,05,40,18.50
2015,06,29,05,41,18.50
2015,06,29,05,42,18.50
2015,06,29,05,43,18.40
2015,06,29,05,44,18.40
2015,06,29,05,45,18.40
2015,06,29,05,46,18.40
2015,06,29,05,47,18.40
2015,06,29,05,48,18.40
2015,06,29,05,49,18.40
2015,06,29,05,50,18.40
2015,06,29,05,51,18.40
2015,06,29,05,52,18.40
2015,06,29,05,53,18.40
2015,06,29,05,54,18.40
2015,06,29,05,55,18.40
2015,06,29,05,56,18.40
2015,06,29,05,57,18.40
2015,06,29,05,58,18.40
2015,06,29,05,59,18.50
2015,06,29,06,00,18.50
2015,06,29,06,01,18.50
2015,06,29,06,02,18.50
2015,06,29,06,03,18.50
2015,06,29,06,04,18.50
2015,06,29,06,05,18.50
2015,06,29,06,06,18.50
2015,06,29,06,07,18.40
2015,06,29,06,08,18.40
2015,06,29,06,09,18.40
2015,06,29,06,10,18.40
2015,06,29,06,11,18.40
2015,06,29,06,12,18.40
2015,06,29,06,13,18.40
2015,06,29,06,14,18.40
2015,06,29,06,15,18.40
2015,06,29,06,16,18.40
2015,06,29,06,17,18.40
2015,06,29,06,18,18.40
2015,06,29,06,19,18.40
2015,06,29,06,20,18.40
2015,06,29,06,21,18.40
2015,06,29,06,22,18.40
2015,06,29,06,23,18.40
2015,06,29,06,24,18.40
2015,06,29,06,25,18.40
2015,06,29,06,26,18.40
2015,06,29,06,27,18.40
2015,06,29,06,28,18.40
2015,06,29,06,29,18.40
2015,06,29,06,30,18.40
2015,06,29,06,31,18.40
2015,06,29,06,32,18.40
2015,06,29,06,33,18.40
2015,06,29,06,34,18.40
2015,06,29,06,35,18.50
2015,06,29,06,36,18.50
2015,06,29,06,37,18.60
2015,06,29,06,38,18.60
2015,06,29,06,39,18.60
2015,06,29,06,40,18.70
2015,06,29,06,41,18.80
2015,06,29,06,42,18.80
2015,06,29,06,43,18.90
2015,06,29,06,44,18.90
2015,06,29,06,45,18.90
2015,06,29,06,46,18.90
2015,06,29,06,47,18.90
2015,06,29,06,48,19.00
2015,06,29,06,49,19.00
2015,06,29,06,50,19.00
2015,06,29,06,51,19.00
2015,06,29,06,52,19.10
2015,06,29,06,53,19.10
2015,06,29,06,54,19.20
2015,06,29,06,55,19.30
2015,06,29,06,56,19.40
2015,06,29,06,57,19.50
2015,06,29,06,58,19.60
2015,06,29,06,59,19.70
2015,06,29,07,00,19.80
2015,06,29,07,01,19.90
2015,06,29,07,02,19.90
2015,06,29,07,03,20.00
2015,06,29,07,04,20.10
2015,06,29,07,05,20.20
2015,06,29,07,06,20.20
2015,06,29,07,07,20.20
2015,06,29,07,08,20.30
2015,06,29,07,09,20.30
2015,06,29,07,10,20.30
2015,06,29,07,11,20.30
2015,06,29,07,12,20.30
2015,06,29,07,13,20.30
2015,06,29,07,14,20.30
2015,06,29,07,15,20.30
2015,06,29,07,16,20.30
2015,06,29,07,17,20.30
2015,06,29,07,18,20.30
2015,06,29,07,19,20.30
2015,06,29,07,20,20.30
2015,06,29,07,21,20.30
2015,06,29,07,22,20.30
2015,06,29,07,23,20.20
2015,06,29,07,24,20.20
2015,06,29,07,25,20.20
2015,06,29,07,26,20.20
2015,06,29,07,27,20.20
2015,06,29,07,28,20.30
2015,06,29,07,29,20.30
2015,06,29,07,30,20.30
2015,06,29,07,31,20.30
2015,06,29,07,32,20.40
2015,06,29,07,33,20.50
2015,06,29,07,34,20.50
2015,06,29,07,35,20.60
2015,06,29,07,36,20.70
2015,06,29,07,37,20.80
2015,06,29,07,38,20.90
2015,06,29,07,39,21.00
2015,06,29,07,40,21.10
2015,06,29,07,41,21.20
2015,06,29,07,42,21.30
2015,06,29,07,43,21.40
2015,06,29,07,44,21.60
2015,06,29,07,45,21.80
2015,06,29,07,46,21.90
2015,06,29,07,47,22.10
2015,06,29,07,48,22.20
2015,06,29,07,49,22.40
2015,06,29,07,50,22.50
2015,06,29,07,51,22.60
2015,06,29,07,52,22.60
2015,06,29,07,53,22.70
2015,06,29,07,54,22.80
2015,06,29,07,55,22.90
2015,06,29,07,56,23.00
2015,06,29,07,57,23.00
2015,06,29,07,58,23.20
2015,06,29,07,59,23.30
2015,06,29,08,00,23.40
2015,06,29,08,01,23.50
2015,06,29,08,02,23.50
2015,06,29,08,03,23.60
2015,06,29,08,04,23.70
2015,06,29,08,05,23.70
2015,06,29,08,06,23.80
2015,06,29,08,07,23.80
2015,06,29,08,08,23.80
2015,06,29,08,09,23.90
2015,06,29,08,10,23.90
2015,06,29,08,11,23.90
2015,06,29,08,12,23.90
2015,06,29,08,13,23.90
2015,06,29,08,14,23.90
2015,06,29,08,15,23.90
2015,06,29,08,16,23.90
2015,06,29,08,17,23.90
2015,06,29,08,18,23.90
2015,06,29,08,19,23.90
2015,06,29,08,20,24.00
2015,06,29,08,21,24.00
2015,06,29,08,22,24.10
2015,06,29,08,23,24.10
2015,06,29,08,24,24.30
2015,06,29,08,25,24.30
2015,06,29,08,26,24.40
2015,06,29,08,27,24.50
2015,06,29,08,28,24.60
2015,06,29,08,29,24.70
2015,06,29,08,30,24.90
2015,06,29,08,31,25.00
2015,06,29,08,32,25.00
2015,06,29,08,33,25.10
2015,06,29,08,34,25.00
2015,06,29,08,35,25.00
2015,06,29,08,36,25.00
2015,06,29,08,37,25.00
2015,06,29,08,38,25.00
2015,06,29,08,39,25.00
2015,06,29,08,40,24.90
2015,06,29,08,41,24.90
2015,06,29,08,42,25.00
2015,06,29,08,43,25.00
2015,06,29,08,44,25.10
2015,06,29,08,45,25.20
2015,06,29,08,46,25.30
2015,06,29,08,47,25.40
2015,06,29,08,48,25.60
2015,06,29,08,49,25.70
2015,06,29,08,50,25.80
2015,06,29,08,51,25.90
2015,06,29,08,52,25.90
2015,06,29,08,53,25.90
2015,06,29,08,54,25.90
2015,06,29,08,55,25.90
2015,06,29,08,56,25.90
2015,06,29,08,57,25.90
2015,06,29,08,58,25.90
2015,06,29,08,59,26.00
2015,06,29,09,00,26.00
2015,06,29,09,01,26.00
2015,06,29,09,02,26.10
2015,06,29,09,03,26.20
2015,06,29,09,04,26.20
2015,06,29,09,05,26.30
2015,06,29,09,06,26.30
2015,06,29,09,07,26.30
2015,06,29,09,08,26.30
2015,06,29,09,09,26.30
2015,06,29,09,10,26.30
2015,06,29,09,11,26.40
2015,06,29,09,12,26.50
2015,06,29,09,13,26.60
2015,06,29,09,14,26.70
2015,06,29,09,15,26.80
2015,06,29,09,16,26.80
2015,06,29,09,17,26.90
2015,06,29,09,18,26.90
2015,06,29,09,19,26.90
2015,06,29,09,20,27.00
2015,06,29,09,21,27.00
2015,06,29,09,22,27.00
2015,06,29,09,23,26.90
2015,06,29,09,24,26.80
2015,06,29,09,25,26.70
2015,06,29,09,26,26.60
2015,06,29,09,27,26.60
2015,06,29,09,28,26.60
2015,06,29,09,29,26.60
2015,06,29,09,30,26.50
2015,06,29,09,31,26.50
2015,06,29,09,32,26.50
2015,06,29,09,33,26.40
2015,06,29,09,34,26.40
2015,06,29,09,35,26.50
2015,06,29,09,36,26.50
2015,06,29,09,37,26.50
2015,06,29,09,38,26.50
2015,06,29,09,39,26.40
2015,06,29,09,40,26.40
2015,06,29,09,41,26.40
2015,06,29,09,42,26.30
2015,06,29,09,43,26.30
2015,06,29,09,44,26.30
2015,06,29,09,45,26.30
2015,06,29,09,46,26.30
2015,06,29,09,47,26.30
2015,06,29,09,48,26.30
2015,06,29,09,49,26.30
2015,06,29,09,50,26.40
2015,06,29,09,51,26.50
2015,06,29,09,52,26.60
2015,06,29,09,53,26.70
2015,06,29,09,54,26.70
2015,06,29,09,55,26.70
2015,06,29,09,56,26.80
2015,06,29,09,57,26.80
2015,06,29,09,58,26.80
2015,06,29,09,59,26.80
2015,06,29,10,00,26.90
2015,06,29,10,01,27.00
2015,06,29,10,02,27.00
2015,06,29,10,03,27.00
2015,06,29,10,04,26.90
2015,06,29,10,05,26.80
2015,06,29,10,06,26.80
2015,06,29,10,07,26.80
2015,06,29,10,08,26.90
2015,06,29,10,09,26.80
2015,06,29,10,10,26.80
2015,06,29,10,11,26.70
2015,06,29,10,12,26.70
2015,06,29,10,13,26.80
2015,06,29,10,14,26.70
2015,06,29,10,15,26.70
2015,06,29,10,16,26.70
2015,06,29,10,17,26.60
2015,06,29,10,18,26.50
2015,06,29,10,19,26.40
2015,06,29,10,20,26.40
2015,06,29,10,21,26.40
2015,06,29,10,22,26.50
2015,06,29,10,23,26.60
2015,06,29,10,24,26.80
2015,06,29,10,25,26.90
2015,06,29,10,26,26.90
2015,06,29,10,27,26.90
2015,06,29,10,28,26.90
2015,06,29,10,29,26.90
2015,06,29,10,30,27.00
2015,06,29,10,31,27.10
2015,06,29,10,32,27.10
2015,06,29,10,33,27.10
2015,06,29,10,34,27.10
2015,06,29,10,35,27.10
2015,06,29,10,36,27.10
2015,06,29,10,37,27.20
2015,06,29,10,38,27.20
2015,06,29,10,39,27.30
2015,06,29,10,40,27.40
2015,06,29,10,41,27.50
2015,06,29,10,42,27.60
2015,06,29,10,43,27.60
2015,06,29,10,44,27.70
2015,06,29,10,45,27.70
2015,06,29,10,46,27.80
2015,06,29,10,47,27.80
2015,06,29,10,48,27.80
2015,06,29,10,49,27.70
2015,06,29,10,50,27.60
2015,06,29,10,51,27.60
2015,06,29,10,52,27.50
2015,06,29,10,53,27.50
2015,06,29,10,54,27.50
2015,06,29,10,55,27.50
2015,06,29,10,56,27.50
2015,06,29,10,57,27.50
2015,06,29,10,58,27.50
2015,06,29,10,59,27.50
2015,06,29,11,00,27.50
2015,06,29,11,01,27.60
2015,06,29,11,02,27.70
2015,06,29,11,03,27.80
2015,06,29,11,04,27.80
2015,06,29,11,05,27.80
2015,06,29,11,06,27.80
2015,06,29,11,07,27.90
2015,06,29,11,08,28.00
2015,06,29,11,09,28.10
2015,06,29,11,10,28.10
2015,06,29,11,11,28.10
2015,06,29,11,12,28.10
2015,06,29,11,13,28.10
2015,06,29,11,14,28.10
2015,06,29,11,15,28.10
2015,06,29,11,16,28.10
2015,06,29,11,17,28.00
2015,06,29,11,18,28.00
2015,06,29,11,19,28.10
2015,06,29,11,20,28.10
2015,06,29,11,21,28.00
2015,06,29,11,22,28.00
2015,06,29,11,23,27.90
2015,06,29,11,24,27.90
2015,06,29,11,25,28.00
2015,06,29,11,26,28.00
2015,06,29,11,27,28.00
2015,06,29,11,28,28.10
2015,06,29,11,29,28.20
2015,06,29,11,30,28.20
2015,06,29,11,31,28.20
2015,06,29,11,32,28.10
2015,06,29,11,33,28.00
2015,06,29,11,34,27.90
2015,06,29,11,35,27.90
2015,06,29,11,36,27.90
2015,06,29,11,37,28.00
2015,06,29,11,38,28.20
2015,06,29,11,39,28.30
2015,06,29,11,40,28.30
2015,06,29,11,41,28.40
2015,06,29,11,42,28.40
2015,06,29,11,43,28.50
2015,06,29,11,44,28.60
2015,06,29,11,45,28.70
2015,06,29,11,46,28.80
2015,06,29,11,47,29.00
2015,06,29,11,48,29.10
2015,06,29,11,49,29.10
2015,06,29,11,50,29.10
2015,06,29,11,51,29.10
2015,06,29,11,52,29.20
2015,06,29,11,53,29.20
2015,06,29,11,54,29.40
2015,06,29,11,55,29.50
2015,06,29,11,56,29.50
2015,06,29,11,57,29.60
2015,06,29,11,58,29.70
2015,06,29,11,59,29.80
2015,06,29,12,00,29.80
2015,06,29,12,01,29.90
2015,06,29,12,02,29.90
2015,06,29,12,03,30.00
2015,06,29,12,04,30.00
2015,06,29,12,05,30.00
2015,06,29,12,06,30.00
2015,06,29,12,07,29.90
2015,06,29,12,08,29.90
2015,06,29,12,09,29.80
2015,06,29,12,10,29.80
2015,06,29,12,11,29.80
2015,06,29,12,12,29.80
2015,06,29,12,13,29.80
2015,06,29,12,14,29.70
2015,06,29,12,15,29.70
2015,06,29,12,16,29.70
2015,06,29,12,17,29.70
2015,06,29,12,18,29.80
2015,06,29,12,19,29.80
2015,06,29,12,20,29.80
2015,06,29,12,21,29.80
2015,06,29,12,22,29.80
2015,06,29,12,23,29.90
2015,06,29,12,24,30.00
2015,06,29,12,25,30.10
2015,06,29,12,26,30.30
2015,06,29,12,27,30.40
2015,06,29,12,28,30.30
2015,06,29,12,29,30.20
2015,06,29,12,30,30.10
2015,06,29,12,31,30.10
2015,06,29,12,32,30.20
2015,06,29,12,33,30.20
2015,06,29,12,34,30.30
2015,06,29,12,35,30.30
2015,06,29,12,36,30.30
2015,06,29,12,37,30.20
2015,06,29,12,38,30.00
2015,06,29,12,39,29.90
2015,06,29,12,40,29.90
2015,06,29,12,41,29.80
2015,06,29,12,42,29.70
2015,06,29,12,43,29.70
2015,06,29,12,44,29.60
2015,06,29,12,45,29.60
2015,06,29,12,46,29.50
2015,06,29,12,47,29.50
2015,06,29,12,48,29.50
2015,06,29,12,49,29.50
2015,06,29,12,50,29.50
2015,06,29,12,51,29.50
2015,06,29,12,52,29.50
2015,06,29,12,53,29.60
2015,06,29,12,54,29.60
2015,06,29,12,55,29.60
2015,06,29,12,56,29.60
2015,06,29,12,57,29.70
2015,06,29,12,58,29.70
2015,06,29,12,59,29.60
2015,06,29,13,00,29.50
2015,06,29,13,01,29.50
2015,06,29,13,02,29.50
2015,06,29,13,03,29.50
2015,06,29,13,04,29.40
2015,06,29,13,05,29.30
2015,06,29,13,06,29.30
2015,06,29,13,07,29.30
2015,06,29,13,08,29.30
2015,06,29,13,09,29.20
2015,06,29,13,10,29.30
2015,06,29,13,11,29.30
2015,06,29,13,12,29.40
2015,06,29,13,13,29.40
2015,06,29,13,14,29.50
2015,06,29,13,15,29.60
2015,06,29,13,16,29.70
2015,06,29,13,17,29.80
2015,06,29,13,18,29.80
2015,06,29,13,19,29.70
2015,06,29,13,20,29.50
2015,06,29,13,21,29.40
2015,06,29,13,22,29.30
2015,06,29,13,23,29.30
2015,06,29,13,24,29.30
2015,06,29,13,25,29.30
2015,06,29,13,26,29.30
2015,06,29,13,27,29.30
2015,06,29,13,28,29.40
2015,06,29,13,29,29.40
2015,06,29,13,30,29.40
2015,06,29,13,31,29.60
2015,06,29,13,32,29.70
2015,06,29,13,33,29.80
2015,06,29,13,34,29.80
2015,06,29,13,35,29.90
2015,06,29,13,36,30.00
2015,06,29,13,37,29.90
2015,06,29,13,38,29.90
2015,06,29,13,39,29.90
2015,06,29,13,40,29.70
2015,06,29,13,41,29.70
2015,06,29,13,42,29.80
2015,06,29,13,43,29.80
2015,06,29,13,44,29.80
2015,06,29,13,45,29.50
2015,06,29,13,46,29.30
2015,06,29,13,47,29.20
2015,06,29,13,48,29.10
2015,06,29,13,49,29.20
2015,06,29,13,50,29.20
2015,06,29,13,51,29.20
2015,06,29,13,52,29.30
2015,06,29,13,53,29.30
2015,06,29,13,54,29.40
2015,06,29,13,55,29.40
2015,06,29,13,56,29.40
2015,06,29,13,57,29.30
2015,06,29,13,58,29.30
2015,06,29,13,59,29.30
2015,06,29,14,00,29.30
2015,06,29,14,01,29.40
2015,06,29,14,02,29.50
2015,06,29,14,03,29.60
2015,06,29,14,04,29.70
2015,06,29,14,05,29.70
2015,06,29,14,06,29.80
2015,06,29,14,07,29.90
2015,06,29,14,08,30.00
2015,06,29,14,09,30.00
2015,06,29,14,10,30.10
2015,06,29,14,11,30.10
2015,06,29,14,12,30.10
2015,06,29,14,13,30.10
2015,06,29,14,14,30.10
2015,06,29,14,15,30.20
2015,06,29,14,16,30.30
2015,06,29,14,17,30.30
2015,06,29,14,18,30.50
2015,06,29,14,19,30.60
2015,06,29,14,20,30.50
2015,06,29,14,21,30.50
2015,06,29,14,22,30.40
2015,06,29,14,23,30.50
2015,06,29,14,24,30.60
2015,06,29,14,25,30.60
2015,06,29,14,26,30.60
2015,06,29,14,27,30.60
2015,06,29,14,28,30.60
2015,06,29,14,29,30.50
2015,06,29,14,30,30.50
2015,06,29,14,31,30.50
2015,06,29,14,32,30.60
2015,06,29,14,33,30.60
2015,06,29,14,34,30.70
2015,06,29,14,35,30.80
2015,06,29,14,36,30.80
2015,06,29,14,37,30.80
2015,06,29,14,38,30.80
2015,06,29,14,39,30.90
2015,06,29,14,40,30.90
2015,06,29,14,41,30.90
2015,06,29,14,42,31.00
2015,06,29,14,43,31.10
2015,06,29,14,44,31.10
2015,06,29,14,45,31.20
2015,06,29,14,46,31.30
2015,06,29,14,47,31.30
2015,06,29,14,48,31.40
2015,06,29,14,49,31.50
2015,06,29,14,50,31.60
2015,06,29,14,51,31.70
2015,06,29,14,52,31.70
2015,06,29,14,53,31.60
2015,06,29,14,54,31.70
2015,06,29,14,55,31.70
2015,06,29,14,56,31.70
2015,06,29,14,57,31.60
2015,06,29,14,58,31.50
2015,06,29,14,59,31.40
2015,06,29,15,00,31.50
2015,06,29,15,01,31.40
2015,06,29,15,02,31.40
2015,06,29,15,03,31.40
2015,06,29,15,04,31.40
2015,06,29,15,05,31.50
2015,06,29,15,06,31.60
2015,06,29,15,07,31.70
2015,06,29,15,08,31.80
2015,06,29,15,09,31.80
2015,06,29,15,10,31.80
2015,06,29,15,11,31.80
2015,06,29,15,12,31.70
2015,06,29,15,13,31.70
2015,06,29,15,14,31.50
2015,06,29,15,15,31.40
2015,06,29,15,16,31.50
2015,06,29,15,17,31.50
2015,06,29,15,18,31.60
2015,06,29,15,19,31.60
2015,06,29,15,20,31.60
2015,06,29,15,21,31.60
2015,06,29,15,22,31.60
2015,06,29,15,23,31.50
2015,06,29,15,24,31.40
2015,06,29,15,25,31.30
2015,06,29,15,26,31.20
2015,06,29,15,27,31.10
2015,06,29,15,28,31.00
2015,06,29,15,29,30.90
2015,06,29,15,30,30.80
2015,06,29,15,31,30.70
2015,06,29,15,32,30.70
2015,06,29,15,33,30.70
2015,06,29,15,34,30.70
2015,06,29,15,35,30.60
2015,06,29,15,36,30.60
2015,06,29,15,37,30.60
2015,06,29,15,38,30.50
2015,06,29,15,39,30.40
2015,06,29,15,40,30.40
2015,06,29,15,41,30.40
2015,06,29,15,42,30.40
2015,06,29,15,43,30.40
2015,06,29,15,44,30.40
2015,06,29,15,45,30.50
2015,06,29,15,46,30.50
2015,06,29,15,47,30.70
2015,06,29,15,48,30.80
2015,06,29,15,49,30.80
2015,06,29,15,50,30.80
2015,06,29,15,51,30.80
2015,06,29,15,52,30.80
2015,06,29,15,53,30.80
2015,06,29,15,54,30.80
2015,06,29,15,55,30.80
2015,06,29,15,56,30.70
2015,06,29,15,57,30.60
2015,06,29,15,58,30.40
2015,06,29,15,59,30.30
2015,06,29,16,00,30.30
2015,06,29,16,01,30.20
2015,06,29,16,02,30.30
2015,06,29,16,03,30.20
2015,06,29,16,04,30.10
2015,06,29,16,05,30.10
2015,06,29,16,06,30.10
2015,06,29,16,07,30.10
2015,06,29,16,08,30.20
2015,06,29,16,09,30.20
2015,06,29,16,10,30.30
2015,06,29,16,11,30.30
2015,06,29,16,12,30.30
2015,06,29,16,13,30.30
2015,06,29,16,14,30.30
2015,06,29,16,15,30.20
2015,06,29,16,16,30.10
2015,06,29,16,17,29.90
2015,06,29,16,18,29.80
2015,06,29,16,19,29.70
2015,06,29,16,20,29.60
2015,06,29,16,21,29.60
2015,06,29,16,22,29.50
2015,06,29,16,23,29.50
2015,06,29,16,24,29.40
2015,06,29,16,25,29.40
2015,06,29,16,26,29.40
2015,06,29,16,27,29.50
2015,06,29,16,28,29.50
2015,06,29,16,29,29.50
2015,06,29,16,30,29.50
2015,06,29,16,31,29.60
2015,06,29,16,32,29.60
2015,06,29,16,33,29.70
2015,06,29,16,34,29.70
2015,06,29,16,35,29.70
2015,06,29,16,36,29.80
2015,06,29,16,37,29.80
2015,06,29,16,38,29.80
2015,06,29,16,39,29.90
2015,06,29,16,40,29.90
2015,06,29,16,41,29.80
2015,06,29,16,42,29.80
2015,06,29,16,43,29.80
2015,06,29,16,44,29.80
2015,06,29,16,45,29.80
2015,06,29,16,46,29.80
2015,06,29,16,47,29.80
2015,06,29,16,48,29.80
2015,06,29,16,49,29.80
2015,06,29,16,50,29.80
2015,06,29,16,51,29.80
2015,06,29,16,52,29.80
2015,06,29,16,53,29.90
2015,06,29,16,54,30.10
2015,06,29,16,55,30.20
2015,06,29,16,56,30.20
2015,06,29,16,57,30.20
2015,06,29,16,58,30.30
2015,06,29,16,59,30.30
2015,06,29,17,00,30.30
2015,06,29,17,01,30.40
2015,06,29,17,02,30.50
2015,06,29,17,03,30.60
2015,06,29,17,04,30.70
2015,06,29,17,05,30.70
2015,06,29,17,06,30.70
2015,06,29,17,07,30.70
2015,06,29,17,08,30.70
2015,06,29,17,09,30.80
2015,06,29,17,10,30.80
2015,06,29,17,11,30.80
2015,06,29,17,12,30.70
2015,06,29,17,13,30.60
2015,06,29,17,14,30.50
2015,06,29,17,15,30.40
2015,06,29,17,16,30.40
2015,06,29,17,17,30.40
2015,06,29,17,18,30.30
2015,06,29,17,19,30.30